Showing default

TELSTAR 2 (A-41), 573

Orbit data source: Space-Track

TELSTAR 2 (A-41), 573 is a payload satellite owned by AT&T (US) in HEO that was launched on Tue, 07 May 1963 UTC via a THOR DELTA B launch vehicle from the Air Force Eastern Test Range (AFETR). Payloads include a variety of satellites, spacecraft, and rockets equipped with specific instruments for various scientific and technological missions. These include communications satellites like Starlink; space stations such as the ISS; scientific satellites like the Hubble; Earth observation satellites from companies like Planet Labs, Umbra, and HawkEye 360; GPS; miniature CubeSats for education and research; and military/defense satellites.

Loading next visibility...
TELSTAR 2 (A-41) details
Identifier
573, 1963-013A
Orbit
HEO
Last TLE update7 hours ago
Origin
Flag of USAT&T (US)
ManufacturerAT&T/BTL
MissionCommercial Communications
Bus & MotorTSX, Unknown motor
Mass79 kg wet, 79 kg dry
Launch date (UTC)
1963-05-07 (62 years ago)
Launch vehicle
THOR DELTA B
Launch site
Air Force Eastern Test Range (AFETR)
Object type
Payload
Rocket body
Debris
Shape & HBRSphere + 1 Ant, 1.5 m
Radar Cross Section0.677 m², Medium (>0.1 m² and < 1m²)

Expand to show TLE details & history

TLE from 7 hours ago
0 TELSTAR 2 (A-41)
1 00573U 63013A   25036.49074644  .00000075  00000-0  97187-3 0  9999
2 00573  42.7506 148.8687 4017498 266.1861  98.6238  6.39265745554384
Epoch: 2025-02-05T11:46Z
Definitive object data (Epoch: 2025-02-05T11:46:40.492Z)
Latitude28.14238°
Longitude-128.44107°
Altitude8,257.824 km
Speed4.689 km/s
True Right ascension12h 16m 26s
True Declination28° 04' 22"
Sunlit
Object was in daylight at TLE epoch
Visualization TLE readout
Latitude24.40658°
Longitude-134.70631°
Altitude7,573.179 km
Speed4.965 km/s
Apparent Right ascension11h 09m 00s
Apparent Declination5° 42' 15"
Sunlit
Object is in daylight
Visualization observer readout
Local Sidereal Time21:15:04
Azimuth323.336° NNW
Elevation-37.376°
Doppler factor1
Orbital elements
Apogee altitude10,814.248 km
Perigee altitude959.369 km
Semi-major axis12,264.946 km
Eccentricity0.4017498
Inclination42.7506°
RAAN148.8687°
Arg. of periapsis266.1861°
True anomaly137.74831°
Mean anomaly98.6238°
Eccentric anomaly118.79592°
Mean motion1.59788 °/min
BSTAR0.00097187
Orbital period225.3 mins
Loading maneuver chart data...
Loading historical data...
Loading historical data...
Loading historical data...
Loading historical data...
Loading historical data...
Loading historical data...
Loading historical data...
Other satellites on launch #13 in the year 1963 (1963-05-07 UTC)

TELSTAR 2 (A-41) Visibility forecast

Observer location: undefined°, undefined

Span
Click to sort rows by Start time (UTC) header in descending order
Start Az.
Max El. time (UTC)
Max El. Az.
Max El.
End time (UTC)
End Az.
52 mins2025-02-05 20:36:48.442Z297.193° NW2025-02-05 21:09:48.442Z266.913° W17.729°2025-02-05 21:28:48.442Z230.448° WSW
61 mins2025-02-06 06:05:48.442Z131.396° SE2025-02-06 06:26:48.442Z94.343° ESE19.422°2025-02-06 07:06:48.442Z61.245° ENE
125 mins2025-02-06 09:49:48.442Z220.692° SW2025-02-06 10:28:48.442Z141.539° SSE44.304°2025-02-06 11:54:48.442Z72.136° E
131 mins2025-02-06 13:59:48.442Z274.992° WNW2025-02-06 15:21:48.442Z350.222° N45°2025-02-06 16:10:48.442Z117.229° SE
34 mins2025-02-06 18:36:48.442Z300.987° NW2025-02-06 19:10:48.442Z286.705° WNW26.036°2025-02-06 19:10:48.442Z286.705° WNW
|